Retour au catalogue

FALCON 9 R/B

ActifHEO
NORAD 58964·ROCKET BODY·🇺🇸 United States

Lancé Feb 15, 2024 depuis Cape Canaveral Space Force Station

Loading…

Prochains Passages (prochaines 24 heures)

TLE

PériméSource: Space-Track

Époque: Feb 15, 2024, 06:40 UTC

1 58964U 24030B   24046.27792824 -.00014702  00000-0  00000-0 0  9993
2 58964  28.5100  65.0800 9704700 239.9600   5.0000  0.08200507    02

Suivez FALCON 9 R/B en temps réel avec AllMySat

Download on the App Store